User: anonymous   Login
Location: Aiyekoto
(8.4333°N, 4.3667°E)
Time: 00:14:13
(UTC+00:00)
Language:

Cosmos 1844 Rocket - Orbit

View from above orbital plane
View from above orbital plane
View from above satellite
View from above satellite

Ground track
Ground track

The orbit data is extracted from the following two-line orbital elements,

1 17974U 87041B   21167.51910201  .00000034  00000-0  40623-4 0  9990
2 17974  71.0072  72.9741 0015336 316.8339 215.9739 14.17273656763585
Epoch (UTC): 16 June 2021 12:27:30
Eccentricity: 0.0015336
inclination: 71.0072°
perigee height: 823 km
apogee height: 845 km
right ascension of ascending node: 72.9741°
argument of perigee: 316.8339°
revolutions per day: 14.17273656
mean anomaly at epoch: 215.9739°
orbit number at epoch: 76358

The dashed part of the orbit path shows where the satellite is in the earth's shadow,  

DLR